Change the Weather History Date:

Monday, December 17, 2012

  Actual Average Record
Temperature  
Mean Temperature 42 °F -  
Max Temperature 55 °F 50 °F 73 °F (1976)
Min Temperature 27 °F 24 °F 0 °F (1979)
Degree Days  
Heating Degree Days 24    
Moisture  
Dew Point 32 °F    
Average Humidity 80    
Maximum Humidity 96    
Minimum Humidity 37    
Precipitation  
Precipitation 0.00 in - - ()
Sea Level Pressure  
Sea Level Pressure 29.80 in    
Wind  
Wind Speed 3 mph (NW)    
Max Wind Speed 8 mph    
Max Gust Speed -    
Visibility 8 miles    
Events      
Averages and records for this station are not official NWS values.
T = Trace of Precipitation, MM = Missing Value Source: NWS Daily Summary

Daily Weather History Graph

Daily Weather History Graph

Search for Another Location

Airport or City:

Trip Planner

Search our weather history database for the weather conditions in past years. The results will help you decide how hot, cold, wet, or windy it might be!

Date:

Astronomy

Dec. 17, 2012 Rise Set
Actual Time 7:31 AM CST 5:09 PM CST
Civil Twilight 7:02 AM CST 5:38 PM CST
Nautical Twilight 6:29 AM CST 6:11 PM CST
Astronomical Twilight 5:58 AM CST 6:42 PM CST
Moon 10:46 AM CST (12/17) 10:25 PM CST (12/17)
Length of Visible Light 10h 36m
Length of Day
9h 38m
Waxing Crescent, 25% of the Moon is Illuminated
Dec 17
Waxing Crescent
Dec 19
First Quarter
Dec 28
Full
Jan 4
Last Quarter
Jan 11
New

Hourly Weather History & Observations

Time (CST) Temp. Windchill Dew Point Humidity Pressure Visibility Wind Dir Wind Speed Gust Speed Precip Events Conditions
12:21 AM 35.6 °F - 33.8 °F 93% 29.79 in 6.0 mi Calm Calm - N/A   Mostly Cloudy
12:53 AM 36.0 °F - 33.1 °F 89% 29.78 in 5.0 mi Calm Calm - N/A   Overcast
1:07 AM 35.6 °F 32.8 °F 33.8 °F 93% 29.80 in 5.0 mi Variable 3.5 mph - N/A   Overcast
1:53 AM 36.0 °F 30.3 °F 34.0 °F 93% 29.78 in 5.0 mi North 6.9 mph - N/A   Overcast
2:29 AM 35.6 °F 30.7 °F 33.8 °F 93% 29.80 in 6.0 mi North 5.8 mph - N/A   Overcast
2:53 AM 37.0 °F - 33.1 °F 86% 29.81 in 6.0 mi Calm Calm - N/A   Overcast
3:53 AM 37.0 °F 32.4 °F 33.1 °F 86% 29.80 in 7.0 mi North 5.8 mph - N/A   Overcast
4:53 AM 37.0 °F - 34.0 °F 89% 29.81 in 7.0 mi Calm Calm - N/A   Overcast
5:53 AM 37.0 °F 33.3 °F 33.1 °F 86% 29.81 in 7.0 mi North 4.6 mph - N/A   Overcast
6:53 AM 36.0 °F 32.1 °F 33.1 °F 89% 29.84 in 8.0 mi North 4.6 mph - N/A   Overcast
7:53 AM 36.0 °F 33.3 °F 33.1 °F 89% 29.85 in 6.0 mi NNW 3.5 mph - N/A   Overcast
8:53 AM 37.0 °F 34.5 °F 33.1 °F 86% 29.84 in 6.0 mi Variable 3.5 mph - N/A   Overcast
9:53 AM 37.9 °F - 33.1 °F 83% 29.85 in 6.0 mi Calm Calm - N/A   Haze
10:15 AM 41.0 °F 37.1 °F 33.8 °F 76% 29.86 in 7.0 mi Variable 5.8 mph - N/A   Scattered Clouds
10:53 AM 44.1 °F 41.5 °F 35.1 °F 71% 29.86 in 8.0 mi WSW 4.6 mph - N/A   Clear
11:53 AM 46.9 °F - 34.0 °F 61% 29.85 in 10.0 mi WNW 8.1 mph - N/A   Clear
12:53 PM 50.0 °F - 34.0 °F 54% 29.82 in 10.0 mi Variable 4.6 mph - N/A   Clear
1:53 PM 54.0 °F - 32.0 °F 43% 29.78 in 10.0 mi Variable 3.5 mph - N/A   Clear
2:53 PM 55.0 °F - 30.0 °F 38% 29.75 in 10.0 mi WSW 6.9 mph - N/A   Clear
3:53 PM 55.0 °F - 28.9 °F 37% 29.75 in 10.0 mi Variable 5.8 mph - N/A   Clear
6:53 PM 35.1 °F - 28.9 °F 78% 29.78 in 8.0 mi Calm Calm - N/A   Clear
7:53 PM 30.9 °F - 27.0 °F 85% 29.78 in 10.0 mi Calm Calm - N/A   Clear
8:53 PM 30.9 °F - 28.0 °F 89% 29.79 in 10.0 mi Calm Calm - N/A   Clear
9:53 PM 28.9 °F - 27.0 °F 92% 29.78 in 10.0 mi Calm Calm - N/A   Clear
10:53 PM 30.0 °F - 28.0 °F 92% 29.78 in 10.0 mi Calm Calm - N/A   Clear
11:53 PM 27.0 °F 23.0 °F 26.1 °F 96% 29.76 in 10.0 mi South 3.5 mph - N/A   Clear